Staples, MN

7:16 AM CST on February 14, 2016 (GMT -0600)
Staples Municipal

Weather History for KSAZ - November, 2012

Change the Weather History Date:

Wednesday, November 21, 2012

  Actual Average Record
Temperature  
Mean Temperature 44 °F -  
Max Temperature 59 °F - - ()
Min Temperature 28 °F - - ()
Degree Days  
Heating Degree Days 22    
Moisture  
Dew Point 33 °F    
Average Humidity 73    
Maximum Humidity 100    
Minimum Humidity 41    
Precipitation  
Precipitation 0.00 in - - ()
Sea Level Pressure  
Sea Level Pressure 29.80 in    
Wind  
Wind Speed 4 mph (SSE)    
Max Wind Speed 10 mph    
Max Gust Speed -    
Visibility 10 miles    
Events      
T = Trace of Precipitation, MM = Missing Value Source: NWS Daily Summary

Daily Weather History Graph

Daily Weather History Graph

Search for Another Location

Airport or City:

Trip Planner

Search our weather history database for the weather conditions in past years. The results will help you decide how hot, cold, wet, or windy it might be!

Date:

Astronomy

Nov. 21, 2012 Rise Set
Actual Time 7:29 AM CST 4:40 PM CST
Civil Twilight 6:56 AM CST 5:13 PM CST
Nautical Twilight 6:19 AM CST 5:50 PM CST
Astronomical Twilight 5:43 AM CST 6:26 PM CST
Moon 1:16 PM CST (11/21) 12:28 AM CST (11/21)
Length of Visible Light 10h 17m
Length of Day
9h 10m
First Quarter, 62% of the Moon is Illuminated
Nov 21
First Quarter
Nov 28
Full
Dec 6
Last Quarter
Dec 13
New
Dec 19
First Quarter

Hourly Weather History & Observations

Time (CST) Temp. Windchill Dew Point Humidity Pressure Visibility Wind Dir Wind Speed Gust Speed Precip Events Conditions
12:13 AM 35.6 °F 29.2 °F 30.2 °F 81% 29.93 in 10.0 mi South 8.1 mph - N/A   Clear
12:34 AM 37.4 °F 32.8 °F 30.2 °F 75% 29.93 in 10.0 mi SSE 5.8 mph - N/A   Clear
12:53 AM 35.6 °F 32.8 °F 30.2 °F 81% 29.92 in 10.0 mi SSE 3.5 mph - N/A   Clear
1:13 AM 35.6 °F 30.7 °F 30.2 °F 81% 29.91 in 10.0 mi SSE 5.8 mph - N/A   Clear
1:34 AM 35.6 °F 32.8 °F 28.4 °F 75% 29.90 in 10.0 mi SSE 3.5 mph - N/A   Clear
1:53 AM 33.8 °F - 28.4 °F 81% 29.90 in 10.0 mi Calm Calm - N/A   Clear
2:13 AM 33.8 °F - 28.4 °F 81% 29.91 in 10.0 mi Calm Calm - N/A   Clear
2:34 AM 33.8 °F 30.8 °F 28.4 °F 81% 29.90 in 10.0 mi SSE 3.5 mph - N/A   Clear
2:51 AM 33.8 °F - 28.4 °F 81% 29.90 in 10.0 mi Calm Calm - N/A   Clear
3:13 AM 30.2 °F - 28.4 °F 93% 29.90 in 10.0 mi Calm Calm - N/A   Clear
3:33 AM 30.2 °F - 28.4 °F 93% 29.90 in 10.0 mi Calm Calm - N/A   Clear
3:54 AM 28.4 °F - 26.6 °F 93% 29.89 in 10.0 mi Calm Calm - N/A   Clear
4:13 AM 28.4 °F 23.3 °F 26.6 °F 93% 29.89 in 10.0 mi SSE 4.6 mph - N/A   Clear
4:33 AM 28.4 °F 24.6 °F 28.4 °F 100% 29.89 in 10.0 mi South 3.5 mph - N/A   Clear
4:54 AM 30.2 °F - 28.4 °F 93% 29.90 in 10.0 mi Calm Calm - N/A   Clear
5:13 AM 30.2 °F - 28.4 °F 93% 29.89 in 10.0 mi Calm Calm - N/A   Clear
5:33 AM 30.2 °F - 28.4 °F 93% 29.89 in 10.0 mi Calm Calm - N/A   Clear
5:54 AM 28.4 °F - 26.6 °F 93% 29.89 in 10.0 mi Calm Calm - N/A   Clear
6:14 AM 28.4 °F - 26.6 °F 93% 29.88 in 10.0 mi Calm Calm - N/A   Clear
6:33 AM 28.4 °F - 26.6 °F 93% 29.89 in 10.0 mi Calm Calm - N/A   Clear
6:54 AM 28.4 °F - 26.6 °F 93% 29.89 in 10.0 mi Calm Calm - N/A   Clear
7:14 AM 28.4 °F - 26.6 °F 93% 29.90 in 7.0 mi Calm Calm - N/A   Clear
7:33 AM 30.2 °F 25.4 °F 28.4 °F 93% 29.89 in 10.0 mi SSE 4.6 mph - N/A   Clear
7:54 AM 32.0 °F 28.7 °F 28.4 °F 87% 29.88 in 10.0 mi SE 3.5 mph - N/A   Clear
8:13 AM 32.0 °F - 30.2 °F 93% 29.89 in 10.0 mi Calm Calm - N/A   Clear
8:33 AM 33.8 °F - 30.2 °F 87% 29.89 in 7.0 mi Calm Calm - N/A   Clear
8:54 AM 33.8 °F 30.8 °F 30.2 °F 87% 29.89 in 10.0 mi South 3.5 mph - N/A   Clear
9:13 AM 33.8 °F 30.8 °F 30.2 °F 87% 29.89 in 10.0 mi South 3.5 mph - N/A   Clear
9:33 AM 33.8 °F - 30.2 °F 87% 29.89 in 10.0 mi Calm Calm - N/A   Clear
9:54 AM 37.4 °F - 32.0 °F 81% 29.88 in 10.0 mi Calm Calm - N/A   Clear
10:13 AM 39.2 °F - 33.8 °F 81% 29.89 in 10.0 mi Calm Calm - N/A   Clear
10:33 AM 41.0 °F - 33.8 °F 76% 29.88 in 10.0 mi Calm Calm - N/A   Clear
11:13 AM 46.4 °F - 33.8 °F 62% 29.86 in 7.0 mi Calm Calm - N/A   Clear
11:33 AM 48.2 °F - 33.8 °F 58% 29.86 in 10.0 mi Calm Calm - N/A   Clear
11:54 AM 51.8 °F - 35.6 °F 54% 29.85 in 10.0 mi Calm Calm - N/A   Clear
12:13 PM 51.8 °F - 35.6 °F 54% 29.84 in 10.0 mi SE 3.5 mph - N/A   Clear
12:33 PM 53.6 °F - 35.6 °F 51% 29.83 in 10.0 mi SSE 3.5 mph - N/A   Clear
12:53 PM 55.4 °F - 35.6 °F 47% 29.82 in 10.0 mi ESE 5.8 mph - N/A   Clear
1:13 PM 55.4 °F - 35.6 °F 47% 29.81 in 10.0 mi SSE 8.1 mph - N/A   Clear
1:34 PM 57.2 °F - 35.6 °F 44% 29.80 in 10.0 mi South 10.4 mph - N/A   Clear
1:53 PM 59.0 °F - 35.6 °F 42% 29.79 in 10.0 mi South 5.8 mph - N/A   Clear
2:13 PM 57.2 °F - 35.6 °F 44% 29.79 in 10.0 mi South 8.1 mph - N/A   Clear
2:34 PM 57.2 °F - 35.6 °F 44% 29.78 in 10.0 mi SE 6.9 mph - N/A   Clear
2:53 PM 57.2 °F - 33.8 °F 41% 29.77 in 10.0 mi SE 8.1 mph - N/A   Clear
3:13 PM 55.4 °F - 33.8 °F 44% 29.77 in 10.0 mi SSE 8.1 mph - N/A   Clear
3:34 PM 55.4 °F - 33.8 °F 44% 29.77 in 10.0 mi SE 6.9 mph - N/A   Clear
3:58 PM 53.6 °F - 35.6 °F 51% 29.76 in 10.0 mi SE 6.9 mph - N/A   Clear
4:13 PM 51.8 °F - 35.6 °F 54% 29.76 in 10.0 mi SE 6.9 mph - N/A   Clear
4:34 PM 50.0 °F - 35.6 °F 58% 29.74 in 10.0 mi Calm Calm - N/A   Clear
4:53 PM 48.2 °F - 35.6 °F 62% 29.74 in 10.0 mi SE 6.9 mph - N/A   Clear
5:13 PM 48.2 °F - 35.6 °F 62% 29.74 in 10.0 mi SE 5.8 mph - N/A   Clear
5:34 PM 46.4 °F 44.3 °F 35.6 °F 66% 29.73 in 10.0 mi SE 4.6 mph - N/A   Clear
5:53 PM 46.4 °F 43.5 °F 35.6 °F 66% 29.72 in 10.0 mi SE 5.8 mph - N/A   Clear
6:14 PM 44.6 °F 41.4 °F 35.6 °F 71% 29.70 in 10.0 mi SE 5.8 mph - N/A   Clear
6:34 PM 44.6 °F 41.4 °F 35.6 °F 71% 29.70 in 10.0 mi SE 5.8 mph - N/A   Clear
6:53 PM 44.6 °F 42.2 °F 35.6 °F 71% 29.69 in 10.0 mi SE 4.6 mph - N/A   Clear
7:14 PM 44.6 °F 41.4 °F 35.6 °F 71% 29.68 in 10.0 mi SE 5.8 mph - N/A   Clear
7:33 PM 44.6 °F 42.2 °F 35.6 °F 71% 29.67 in 10.0 mi SE 4.6 mph - N/A   Clear
7:53 PM 44.6 °F 40.7 °F 35.6 °F 71% 29.66 in 10.0 mi SSE 6.9 mph - N/A   Clear
8:14 PM 46.4 °F 43.5 °F 35.6 °F 66% 29.65 in 10.0 mi SSE 5.8 mph - N/A   Clear
8:33 PM 46.4 °F 43.5 °F 35.6 °F 66% 29.64 in 10.0 mi SE 5.8 mph - N/A   Clear
8:53 PM 44.6 °F 41.4 °F 35.6 °F 71% 29.63 in 10.0 mi SE 5.8 mph - N/A   Clear
9:14 PM 44.6 °F 40.7 °F 35.6 °F 71% 29.61 in 10.0 mi SE 6.9 mph - N/A   Clear
9:33 PM 46.4 °F 41.5 °F 37.4 °F 71% 29.60 in 10.0 mi SSE 10.4 mph - N/A   Clear
9:53 PM 46.4 °F 41.9 °F 37.4 °F 71% 29.60 in 10.0 mi South 9.2 mph - N/A   Clear
10:14 PM 46.4 °F 41.5 °F 37.4 °F 71% 29.59 in 10.0 mi South 10.4 mph - N/A   Clear
10:33 PM 44.6 °F 39.7 °F 37.4 °F 76% 29.59 in 10.0 mi South 9.2 mph - N/A   Clear
10:53 PM 44.6 °F 40.7 °F 37.4 °F 76% 29.58 in 10.0 mi South 6.9 mph - N/A   Clear
11:13 PM 42.8 °F 38.0 °F 37.4 °F 81% 29.57 in 10.0 mi South 8.1 mph - N/A   Clear
11:33 PM 44.6 °F 40.2 °F 37.4 °F 76% 29.56 in 10.0 mi South 8.1 mph - N/A   Clear
11:54 PM 44.6 °F 39.7 °F 37.4 °F 76% 29.56 in 10.0 mi South 9.2 mph - N/A   Clear